Location: Campavaglio
(41.1333°N, 9.2333°E)
Time: 21:55:53
(UTC+00:00)

STARLINK-71 - Pass Details

Date: 07 June 2020
Orbit: 528 x 530 km, 53.0° (Epoch: 11 July)

Event Time Altitude Azimuth Distance (km) Brightness Sun altitude
Exits shadow 02:41:48 13° 254° (WSW) 1,577 5.4 -11.1°
Maximum altitude 02:45:11 49° 327° (NNW) 692 4.2 -10.6°
Drops below altitude 10° 02:49:07 10° 43° (NE) 1,778 7.9 -10.1°
Sets 02:51:23 0° 49° (NE) 2,671 9.5 -9.8°
